SL-19 DEB, 23491

Orbit data source: Space-Track

SL-19 DEB, 23491 is space debris in LEO originally from a launch on Mon, 26 Dec 1994 UTC launched from the Tyuratam Missile And Space Complex (TTMTR). Debris objects in space refer to the collection of defunct objects orbiting the Earth. Examples of debris include non-operational satellites, rocket bodies, and fragments generated from explosions, collisions, or faulty payload assembly.

Loading next visibility...
Identifier
23491, 1994-085P
Orbit
LEO
Country
Flag of CISCIS
Related business
Manufacturer
Unknown
Mission
Spacecraft
Bus & Motor
Unknown
Mass
Unknown
Launch date (UTC)
1994-12-26 (31 years ago)
Launch vehicle
Unknown
Launch site
Tyuratam Missile And Space Complex (TTMTR)
Object type
Payload
Rocket body
Debris
Shape & HBR
Unknown shape, 0.2 m
Radar Cross Section
Medium (>0.1 m² and <1 m²)

Expand to show TLE details & history
Last TLE update: 2 days ago

TLE from 2 days ago
0 SL-19 DEB
1 23491U 94085P   26171.10824381 -.00005822  00000-0 -13557+0 0  9998
2 23491  64.8229  43.0177 0311435 240.4836 279.6577 11.36932287303773
Epoch: 2026-06-20T02:35Z
TLE epoch observation values (Epoch: 2026-06-20T02:35:52.265Z)
Latitude
21.0858°
Longitude
-94.67124°
Altitude
1,941.9 km
Speed
6.939 km/s
True Right ascension
14h 10m 29s
True Declination
20° 59' 13"
Sunlit
Object was in daylight at epoch
Visualization orbit readout
Latitude
Unknown
Longitude
Unknown
Altitude
Unknown
Speed
Unknown
Apparent Right ascension
Unknown
Apparent Declination
Unknown
Sunlit
N/A
Visualization observer readout
Local Sidereal Time
23:27:18
Azimuth
Unknown
Elevation
Unknown
Doppler factor
Unknown
Orbital elements
Apogee altitude
2,235.147 km
Perigee altitude
1,714.855 km
Semi-major axis
8,353.138 km
Eccentricity
0.03114
Inclination
64.8229°
RAAN
43.0177°
Arg. of periapsis
240.4836°
True anomaly
276.11863°
Mean anomaly
279.6577°
Eccentric anomaly
277.8902°
Mean motion
2.84295 °/min
Orbital period
126.63 mins
BSTAR
-0.13557
Loading maneuver chart data...
Computing Atmospheric mass density...
Loading historical data...
Loading historical data...
Loading historical data...
Loading historical data...
Loading historical data...
Loading historical data...
Loading historical data...

Documentation

Showing up to 5 results
|